AirNav   Air Wisconsin pilot careers
 
 681 users online  

3S2 Swans Field Airport
Dixfield, Maine, USA

GOING TO DIXFIELD?


FAA INFORMATION EFFECTIVE 11 OCTOBER 2018

Location

FAA Identifier: 3S2
Lat/Long: 44-30-50.9000N / 070-24-24.5000W
44-30.848333N / 070-24.408333W
44.5141389 / -70.4068056
(estimated)
Elevation: 418.4 ft. / 128 m (estimated)
Variation: 18W (1985)
From city: 3 miles SE of DIXFIELD, ME
Time zone: UTC -4 (UTC -5 during Standard Time)
Zip code: 04224

Airport Operations

Airport use: Open to the public
Activation date: 05/1971
Control tower: no
ARTCC: BOSTON CENTER
FSS: BANGOR FLIGHT SERVICE STATION
NOTAMs facility: BGR (NOTAM-D service available)
Attendance: UNATNDD
Wind indicator: yes
Segmented circle: no

Airport Communications

CTAF: 122.9
WX AWOS-AV at 0B1 (18 nm W): 122.9 (207-512-2516)
  • CLNC DLVY THRU FLIGHT SERVICES 1-800-WX-BRIEF.

Nearby radio navigation aids

VOR radial/distance  VOR name  Freq  Var
AUGr312/28.6AUGUSTA VOR/DME111.4018W
BMLr119/34.1BERLIN VOR/DME110.4017W

 
NDB name  Hdg/Dist  Freq  Var  ID
RANGELEY168/29.222118WRQM .-. --.- --

Airport Services

Parking: hangars and tiedowns
Airframe service: NONE
Powerplant service: NONE

Runway Information

Runway 12/30

Dimensions: 1808 x 40 ft. / 551 x 12 m
Surface: turf, in good condition
RUNWAY 12  RUNWAY 30
Latitude: 44-30.924372N44-30.773688N
Longitude: 070-24.588318W070-24.229843W
Elevation: 417.9 ft.418.4 ft.
Traffic pattern: leftleft
Runway heading: 139 magnetic, 121 true319 magnetic, 301 true
Touchdown point: yes, no lightsyes, no lights
Obstructions: 55 ft. trees, 65 ft. right of centerline12 ft. trees

Airport Ownership and Management from official FAA records

Ownership: Privately-owned
Owner: ROYAL SWAN
1308 CANTON PT. ROAD
DIXFIELD, ME 04224
Phone (207) 491-5025
Manager: ROYAL SWAN
1308 CANTON PT. ROAD
DIXFIELD, ME 04224
Phone (207) 491-5025

Airport Operational Statistics

Aircraft based on the field: 6
Single engine airplanes: 6
    
Aircraft operations: avg 43/month *
98% local general aviation
2% transient general aviation
* for 12-month period ending 09 August 2016

Additional Remarks

CONTACT AMGR FOR RY CONDITIONS IN WINTER @ 207-491-5025
ACCESS ROADWAY 45 FT FM RY 12/30, CNTRLN ALONG NORTH SIDE.
PVT ROADWAY (+10 FEET) CROSSES RY 12/30 APRX 700 FT FM NW THLD.
WILDLIFE ON OR IN VICINITY OF AIRPORT
RWY 12 +40-50 TREES FM THRESHOLD TO 400' TO THE SE, 35'L OF CENTERLINE
RUNWAY 30, +4" BERM 0' FM END OF RWY ACROSS RWY BENEATH TREES.
FOR CD CTC PORTLAND APCH AT 207-874-7320. IF UNA, CTC FSS.

Instrument Procedures

There are no published instrument procedures at 3S2.

Some nearby airports with instrument procedures:

81B - Oxford County Regional Airport (22 nm S)
KOWK - Central Maine Airport of Norridgewock (26 nm NE)
KLEW - Auburn/Lewiston Municipal Airport (28 nm S)
M57 - Rangeley Lake Seaplane Base (29 nm N)
KAUG - Augusta State Airport (29 nm SE)
 
Loc | Ops | Rwys | IFR | FBO | Links
Com | Nav | Svcs | Stats | Notes

Auburn-Lewiston Municipal Airport
 
Area around 3S2 (Swans Field Airport)
 
Road maps at: MapQuest Bing Google
 
Aerial photo
WARNING: Photo may not be current or correct
Aerial photo of 3S2 (Swans Field Airport)
Do you have a better or more recent aerial photo of Swans Field Airport that you would like to share? If so, please send us your photo.

 
Sectional chart

 
Airport distance calculator
Flying to Swans Field Airport? Find the distance to fly.

From to 3S2

Sunrise and sunset
Times for 15-Oct-2018
 Local
(UTC-4)
 Zulu
(UTC)
Morning civil twilight06:2810:28
Sunrise06:5810:58
Sunset17:5721:57
Evening civil twilight18:2622:26

Current date and time
Zulu (UTC)  15-Oct-2018 11:36:09
Local (UTC-4)  15-Oct-2018 07:36:09
 
METAR
KAUG 
29nm SE 
151053Z AUTO 00000KT 10SM CLR 02/01 A3018 RMK AO2 SLP223 T00170011
KLEW 
29nm S 
151056Z AUTO 00000KT 4SM BR CLR M02/M02 A3018 RMK AO2 SLP238 T10171022 FZRANO
K8B0 
30nm NW 
151115Z AUTO 00000KT 10SM CLR 01/M01 A3013 RMK AO2
KWVL 
32nm E 
151056Z AUTO 00000KT 10SM CLR M01/M02 A3016 RMK AO2 SLP243 T10111017 FZRANO $
KBML 
33nm W 
151052Z AUTO 00000KT 1/4SM FZFG VV001 M02/M03 A3014 RMK AO2 SLP221 I1001 T10221028
KIZG 
39nm SW 
151054Z AUTO 27003KT 1/4SM FZFG VV002 M02/M02 A3018 RMK AO2 SLP226 I1000 T10221022
KMWN 
40nm W 
151056Z 22021G28KT 80SM FEW060 FEW080 SCT160 SCT180 M03/M07 RMK
KCWN 
44nm SW 
151058Z AUTO 34004KT 10SM FEW005 M10/M10 A3023 RMK AO2 SLP224 T10971105 $
KIWI 
44nm SE 
151053Z AUTO 00000KT 10SM CLR M01/M01 A3020 RMK AO2 SLP225 I1000 T10061011
KHIE 
50nm W 
151052Z AUTO 00000KT 10SM CLR M03/M04 A3012 RMK AO2 SLP215 I1000 T10281039
TAF
KAUG 
29nm SE 
151011Z 1510/1606 00000KT P6SM SKC FM151200 VRB03KT P6SM SCT050 BKN100 FM151700 18007KT 4SM -RA OVC050 FM152300 20009KT P6SM OVC008 FM160400 23010KT P6SM BKN008 FM160500 26011KT P6SM BKN025
NOTAMs
Click for the latest NOTAMs
NOTAMs are issued by the DoD/FAA and will open in a separate window not controlled by AirNav.

 

 
 

Would you like to see your business listed on this page?

 If your business provides an interesting product or service to pilots, flight crews, aircraft, or users of the Swans Field Airport, you should consider listing it here.  To start the listing process, click on the button below
 
Add a business
 

Other Pages about Swans Field Airport

Update a link
 
Copyright © AirNav, LLC. All rights reserved. Privacy Policy  Contact